Weather History for VIBN - June, 2014

Change the Weather History Date:

Friday, June 6, 2014

  Actual Average Record
Temperature  
Mean Temperature 99 °F -  
Max Temperature 116 °F 101 °F 116 °F (2014)
Min Temperature 82 °F 81 °F 78 °F (2004)
Cooling Degree Days 34    
Growing Degree Days 49 (Base 50)    
Moisture  
Dew Point 62 °F    
Average Humidity 31    
Maximum Humidity 58    
Minimum Humidity 10    
Precipitation  
Precipitation 0.00 in - - ()
Sea Level Pressure  
Sea Level Pressure 29.39 in    
Wind  
Wind Speed 3 mph ()    
Max Wind Speed 13 mph    
Max Gust Speed -    
Visibility 2.6 miles    
Events      
Averages and records for this station are not official NWS values.
T = Trace of Precipitation, MM = Missing Value Source: Averaged Metar Reports

Daily Weather History Graph

Daily Weather History Graph

Search for Another Location

Airport or City:

Trip Planner

Search our weather history database for the weather conditions in past years. The results will help you decide how hot, cold, wet, or windy it might be!

Date:

Astronomy

Jun. 06, 2014 Rise Set
Actual Time 5:07 AM IST 6:47 PM IST
Civil Twilight 4:41 AM IST 7:12 PM IST
Nautical Twilight 4:10 AM IST 7:43 PM IST
Astronomical Twilight 3:38 AM IST 8:16 PM IST
Moon 12:17 PM IST (6/6) No Moon Set
Length of Visible Light 14h 31m
Length of Day
13h 39m
First Quarter, 54% of the Moon is Illuminated
Jun 6
First Quarter
Jun 13
Full
Jun 20
Last Quarter
Jun 27
New
Jul 5
First Quarter

Hourly Weather History & Observations

Time (IST) Temp. Heat Index Dew Point Humidity Pressure Visibility Wind Dir Wind Speed Gust Speed Precip Events Conditions
12:00 AM 89.6 °F 92.2 °F 66.2 °F 46% 29.42 in 3.1 mi Calm Calm - N/A   Haze
5:30 AM 82 °F - 67 °F 53% 29.40 in 1 mi Calm Calm - -   Haze
6:00 AM 82.4 °F 84.6 °F 66.2 °F 58% 29.42 in 1.6 mi Calm Calm - N/A   Haze
7:00 AM 86.0 °F 89.4 °F 68.0 °F 55% 29.44 in 1.6 mi South 1.2 mph - N/A   Haze
10:00 AM 102.2 °F 106.9 °F 66.2 °F 31% 29.44 in 2.5 mi West 1.2 mph - N/A   Haze
11:30 AM 110 °F - 61 °F 13% 29.43 in 2 mi WNW 6.9 mph - -   Haze
12:00 PM 111.2 °F 114.0 °F 60.8 °F 20% 29.42 in 3.1 mi WNW 6.9 mph - N/A   Haze
1:00 PM 113.0 °F 116.0 °F 60.8 °F 19% 29.42 in 3.1 mi NW 8.1 mph - N/A   Haze
2:00 PM 113.0 °F 113.9 °F 59.0 °F 17% 29.39 in 3.1 mi North 12.7 mph - N/A   Haze
3:00 PM 111.2 °F 110.4 °F 55.4 °F 16% 29.36 in 3.1 mi North 11.5 mph - N/A   Haze
4:00 PM 111.2 °F - 51.8 °F 14% 29.36 in 3.1 mi North 11.5 mph - N/A   Haze
5:00 PM 109.4 °F 107.9 °F 53.6 °F 16% 29.36 in 3.1 mi NNE 8.1 mph - N/A   Haze
5:30 PM 110 °F - 55 °F 10% 29.33 in 2 mi NNE 6.9 mph - -   Haze
6:00 PM 107.6 °F 108.2 °F 59.0 °F 20% 29.36 in 3.1 mi NNE 6.9 mph - N/A   Haze
7:00 PM 104.0 °F 104.6 °F 59.0 °F 23% 29.36 in 3.1 mi Calm Calm - N/A   Haze
9:00 PM 93.2 °F 96.2 °F 66.2 °F 41% 29.39 in 3.1 mi Calm Calm - N/A   Haze
10:00 PM 93.2 °F 98.8 °F 69.8 °F 46% 29.39 in 3.1 mi Calm Calm - N/A   Haze
11:00 PM 91.4 °F 96.8 °F 69.8 °F 49% 29.39 in 3.1 mi Calm Calm - N/A   Haze
11:30 PM 91 °F - 71 °F 42% 29.39 in 2 mi Calm Calm - -   Haze